Location: Neuvy Saint Sepulchre
(46.5953°N, 1.8122°E)
Time: 21:16:14
(UTC+01:00)

ISS - Pass Details

Date: 17 March 2023
Orbit: 414 x 422 km, 51.6° (Epoch: 25 March)

Event Time Altitude Azimuth Distance (km) Brightness Sun altitude
Rises 20:58:12 0° 243° (WSW) 2,349 0.7 -20.6°
Reaches altitude 10° 21:00:17 10° 243° (WSW) 1,487 -0.4 -20.9°
Enters shadow 21:03:05 60° 247° (WSW) 479 -3.4 -21.3°
